User: anonymous   Login
Location: Barrio de Buenos Aires
(28.4500°N, 16.2667°W)
Time: 19:42:32
(UTC+00:00)
Language:

GPS 2-05 Rocket1 - Orbit

View from above orbital plane
View from above orbital plane
View from above satellite
View from above satellite

Ground track
Ground track

The orbit data is extracted from the following two-line orbital elements,

1 20362U 89097B   20071.22570222  .11608607  21938-5  21862-3 0  9997
2 20362  35.6253  35.8055 0001537 235.4649 152.4826 16.47656705656668
Epoch (UTC): 11 March 2020 05:25:00
Eccentricity: 0.0001537
inclination: 35.6253°
perigee height: 144 km
apogee height: 146 km
right ascension of ascending node: 35.8055°
argument of perigee: 235.4649°
revolutions per day: 16.47656705
mean anomaly at epoch: 152.4826°
orbit number at epoch: 65666

The dashed part of the orbit path shows where the satellite is in the earth's shadow,  

DLR